TimeEST,TemperatureF,Dew PointF,Humidity,Sea Level PressureIn,VisibilityMPH,Wind Direction,Wind SpeedMPH,Gust SpeedMPH,PrecipitationIn,Events,Conditions,WindDirDegrees,DateUTC
12:53 AM,66.0,55.9,70,29.56,10.0,South,21.9,41.4,0.01,,Partly Cloudy,180,2013-12-22 05:53:00
1:53 AM,68.0,55.9,65,29.53,10.0,South,26.5,41.4,N/A,,Partly Cloudy,190,2013-12-22 06:53:00
2:29 AM,64.4,57.2,77,29.66,2.0,West,40.3,55.2,0.08,Rain,Heavy Rain,260,2013-12-22 07:29:00
2:36 AM,62.6,57.2,82,29.66,1.5,WSW,21.9,55.2,0.10,Rain,Rain,240,2013-12-22 07:36:00
2:39 AM,62.6,57.2,82,29.67,3.0,WSW,19.6,48.3,0.11,Rain,Light Rain,250,2013-12-22 07:39:00
2:53 AM,61.0,57.9,90,29.69,10.0,WSW,18.4,31.1,0.12,Rain,Light Rain,240,2013-12-22 07:53:00
3:10 AM,60.8,57.2,88,29.71,10.0,WSW,13.8,24.2,0.00,Rain,Light Rain,240,2013-12-22 08:10:00
3:53 AM,61.0,57.9,90,29.75,10.0,WSW,19.6,28.8,0.01,Rain,Light Rain,250,2013-12-22 08:53:00
4:18 AM,60.8,57.2,88,29.75,10.0,SW,11.5,-,0.00,,Overcast,230,2013-12-22 09:18:00
4:53 AM,60.1,57.0,90,29.75,10.0,SW,10.4,-,0.01,Rain,Light Rain,220,2013-12-22 09:53:00
5:53 AM,59.0,57.0,93,29.76,10.0,South,13.8,-,0.01,Rain,Light Rain,190,2013-12-22 10:53:00
6:53 AM,59.0,57.0,93,29.80,10.0,South,15.0,-,0.05,Rain,Light Rain,180,2013-12-22 11:53:00
7:53 AM,59.0,55.9,90,29.77,9.0,South,16.1,27.6,0.09,Rain,Light Rain,170,2013-12-22 12:53:00
8:53 AM,59.0,54.0,83,29.70,10.0,SSE,24.2,35.7,0.05,,Overcast,160,2013-12-22 13:53:00
9:53 AM,59.0,53.1,81,29.77,10.0,SW,16.1,23.0,0.00,,Mostly Cloudy,220,2013-12-22 14:53:00
10:53 AM,59.0,53.1,81,29.78,10.0,SSW,17.3,25.3,N/A,,Overcast,210,2013-12-22 15:53:00
11:13 AM,59.0,53.6,82,29.77,10.0,SSW,16.1,28.8,N/A,,Overcast,210,2013-12-22 16:13:00
11:53 AM,59.0,53.1,81,29.78,10.0,SSW,19.6,28.8,N/A,,Overcast,210,2013-12-22 16:53:00
12:53 PM,57.9,54.0,87,29.78,9.0,SSW,20.7,27.6,0.00,Rain,Light Rain,210,2013-12-22 17:53:00
1:53 PM,57.9,54.0,87,29.80,10.0,SSW,21.9,28.8,N/A,,Overcast,210,2013-12-22 18:53:00
2:09 PM,57.2,53.6,88,29.81,10.0,SW,15.0,21.9,N/A,,Overcast,220,2013-12-22 19:09:00
2:20 PM,57.2,53.6,88,29.81,10.0,SW,13.8,20.7,N/A,,Overcast,230,2013-12-22 19:20:00
2:53 PM,57.9,52.0,81,29.82,10.0,SW,16.1,25.3,0.00,,Mostly Cloudy,230,2013-12-22 19:53:00
3:01 PM,57.2,51.8,82,29.82,10.0,SW,15.0,25.3,N/A,,Mostly Cloudy,230,2013-12-22 20:01:00
3:53 PM,57.9,48.9,72,29.83,10.0,SW,16.1,23.0,N/A,,Partly Cloudy,230,2013-12-22 20:53:00
4:53 PM,57.0,48.0,72,29.86,10.0,SW,10.4,-,N/A,,Partly Cloudy,230,2013-12-22 21:53:00
5:53 PM,57.0,46.9,69,29.88,10.0,SW,11.5,19.6,N/A,,Mostly Cloudy,230,2013-12-22 22:53:00
6:53 PM,55.9,46.0,69,29.90,10.0,SW,8.1,-,N/A,,Mostly Cloudy,220,2013-12-22 23:53:00
7:53 PM,55.0,46.0,72,29.92,10.0,SW,10.4,16.1,N/A,,Scattered Clouds,230,2013-12-23 00:53:00
8:53 PM,55.0,46.9,74,29.94,10.0,WSW,6.9,-,N/A,,Overcast,240,2013-12-23 01:53:00
9:53 PM,54.0,46.9,77,29.96,10.0,West,9.2,-,N/A,,Mostly Cloudy,260,2013-12-23 02:53:00
10:53 PM,52.0,45.0,77,29.96,10.0,WNW,8.1,-,N/A,,Mostly Cloudy,300,2013-12-23 03:53:00
11:53 PM,51.1,42.1,71,29.98,10.0,West,10.4,-,N/A,,Overcast,260,2013-12-23 04:53:00